Mineola, TX

5:41 AM CDT on April 29, 2017 (GMT -0500)
Mineola

Weather History for KJDD - March, 2013

Change the Weather History Date:

Thursday, March 14, 2013

  Actual Average (KTYR) Record (KTYR)
Temperature  
Mean Temperature 57 °F -  
Max Temperature 75 °F 64 °F 89 °F (2016)
Min Temperature 39 °F 45 °F 24 °F (1975)
Degree Days  
Heating Degree Days 8    
Growing Degree Days 7 (Base 50)    
Moisture  
Dew Point 38 °F    
Average Humidity 52    
Maximum Humidity 87    
Minimum Humidity 27    
Precipitation  
Precipitation 0.00 in - - ()
Sea Level Pressure  
Sea Level Pressure 30.31 in    
Wind  
Wind Speed 4 mph (South)    
Max Wind Speed 13 mph    
Max Gust Speed 21 mph    
Visibility 10 miles    
Events      
Averages and records for this station are not official NWS values.
T = Trace of Precipitation, MM = Missing Value Source: NWS Daily Summary

Daily Weather History Graph

Daily Weather History Graph

Search for Another Location

Airport or City:

Trip Planner

Search our weather history database for the weather conditions in past years. The results will help you decide how hot, cold, wet, or windy it might be!

Date:

Astronomy

Mar. 14, 2013 Rise Set
Actual Time 7:33 AM CDT 7:29 PM CDT
Civil Twilight 7:08 AM CDT 7:54 PM CDT
Nautical Twilight 6:40 AM CDT 8:22 PM CDT
Astronomical Twilight 6:11 AM CDT 8:51 PM CDT
Moon 8:59 AM CDT (3/14) 10:33 PM CDT (3/14)
Length of Visible Light 12h 45m
Length of Day
11h 56m
Waxing Crescent, 9% of the Moon is Illuminated
Mar 14
Waxing Crescent
Mar 19
First Quarter
Mar 27
Full
Apr 2
Last Quarter
Apr 10
New

Hourly Weather History & Observations

Time (CDT) Temp. Windchill Dew Point Humidity Pressure Visibility Wind Dir Wind Speed Gust Speed Precip Events Conditions
12:15 AM 42.8 °F - 37.4 °F 81% 30.38 in 10.0 mi Calm Calm - N/A   Clear
12:35 AM 42.8 °F - 35.6 °F 76% 30.37 in 10.0 mi Calm Calm - N/A   Clear
12:55 AM 42.8 °F - 37.4 °F 81% 30.37 in 10.0 mi Calm Calm - N/A   Clear
1:15 AM 42.8 °F - 37.4 °F 81% 30.37 in 10.0 mi Calm Calm - N/A   Clear
1:35 AM 42.8 °F - 35.6 °F 76% 30.37 in 10.0 mi Calm Calm - N/A   Clear
1:55 AM 41.0 °F - 35.6 °F 81% 30.37 in 10.0 mi Calm Calm - N/A   Clear
2:15 AM 42.8 °F - 35.6 °F 76% 30.37 in 10.0 mi Calm Calm - N/A   Clear
2:35 AM 42.8 °F - 35.6 °F 76% 30.37 in 10.0 mi Calm Calm - N/A   Clear
2:55 AM 41.0 °F - 35.6 °F 81% 30.37 in 10.0 mi Calm Calm - N/A   Clear
3:15 AM 42.8 °F - 35.6 °F 76% 30.36 in 10.0 mi Calm Calm - N/A   Clear
3:35 AM 41.0 °F - 37.4 °F 87% 30.36 in 10.0 mi Calm Calm - N/A   Clear
3:55 AM 41.0 °F - 35.6 °F 81% 30.36 in 10.0 mi Calm Calm - N/A   Clear
4:15 AM 42.8 °F 41.1 °F 35.6 °F 76% 30.35 in 10.0 mi SE 3.5 mph - N/A   Clear
4:35 AM 42.8 °F - 35.6 °F 76% 30.35 in 10.0 mi Calm Calm - N/A   Clear
4:55 AM 42.8 °F - 35.6 °F 76% 30.35 in 10.0 mi Calm Calm - N/A   Clear
5:15 AM 48.2 °F - 32.0 °F 54% 30.35 in 10.0 mi SSE 4.6 mph - N/A   Clear
5:35 AM 48.2 °F - 32.0 °F 54% 30.35 in 10.0 mi SE 4.6 mph - N/A   Clear
5:55 AM 48.2 °F - 32.0 °F 54% 30.35 in 10.0 mi SSE 4.6 mph - N/A   Clear
6:15 AM 46.4 °F 45.2 °F 33.8 °F 62% 30.35 in 10.0 mi SE 3.5 mph - N/A   Clear
6:35 AM 41.0 °F 39.0 °F 35.6 °F 81% 30.35 in 10.0 mi SE 3.5 mph - N/A   Clear
6:55 AM 39.2 °F 37.0 °F 35.6 °F 87% 30.35 in 10.0 mi SE 3.5 mph - N/A   Clear
7:15 AM 39.2 °F 37.0 °F 35.6 °F 87% 30.36 in 10.0 mi SE 3.5 mph - N/A   Clear
7:35 AM 41.0 °F 39.0 °F 35.6 °F 81% 30.36 in 10.0 mi SE 3.5 mph - N/A   Clear
7:55 AM 41.0 °F 38.0 °F 35.6 °F 81% 30.37 in 10.0 mi SSE 4.6 mph - N/A   Clear
8:15 AM 44.6 °F 42.2 °F 35.6 °F 71% 30.38 in 10.0 mi SSE 4.6 mph - N/A   Clear
8:35 AM 51.8 °F - 35.6 °F 54% 30.38 in 10.0 mi SSE 5.8 mph - N/A   Clear
8:55 AM 53.6 °F - 35.6 °F 51% 30.39 in 10.0 mi SSE 5.8 mph - N/A   Clear
9:15 AM 55.4 °F - 35.6 °F 47% 30.39 in 10.0 mi SSE 4.6 mph - N/A   Clear
9:35 AM 57.2 °F - 35.6 °F 44% 30.39 in 10.0 mi South 5.8 mph - N/A   Clear
9:55 AM 60.8 °F - 33.8 °F 36% 30.39 in 10.0 mi SSW 6.9 mph - N/A   Clear
10:15 AM 60.8 °F - 33.8 °F 36% 30.39 in 10.0 mi SSW 11.5 mph - N/A   Clear
10:35 AM 62.6 °F - 35.6 °F 37% - 10.0 mi North - - N/A   Clear
10:55 AM 64.4 °F - 35.6 °F 34% 30.38 in 10.0 mi SSW 8.1 mph 19.6 mph N/A   Clear
11:15 AM 64.4 °F - 35.6 °F 34% 30.38 in 10.0 mi SSW 12.7 mph 18.4 mph N/A   Clear
11:35 AM - - - N/A% - - North - - N/A   Unknown
11:55 AM - - - N/A% - - North - - N/A   Unknown
12:15 PM - - - N/A% - - North - - N/A   Unknown
12:35 PM 69.8 °F - 35.6 °F 28% 30.36 in 10.0 mi SW 11.5 mph 16.1 mph N/A   Unknown
12:55 PM 69.8 °F - 35.6 °F 28% 30.35 in 10.0 mi South 11.5 mph 18.4 mph N/A   Clear
1:15 PM 69.8 °F - 37.4 °F 31% 30.34 in 10.0 mi SW 11.5 mph 17.3 mph N/A   Clear
1:35 PM 71.6 °F - 37.4 °F 29% 30.33 in 9.0 mi SSW 6.9 mph - N/A   Clear
1:55 PM 71.6 °F - 35.6 °F 27% 30.32 in 10.0 mi WSW 12.7 mph 16.1 mph N/A   Clear
2:15 PM 73.4 °F - 37.4 °F 27% 30.31 in 10.0 mi WSW 10.4 mph 17.3 mph N/A   Clear
2:55 PM 73.4 °F - 39.2 °F 29% 30.28 in 10.0 mi South 11.5 mph 20.7 mph N/A   Clear
3:15 PM 73.4 °F - 39.2 °F 29% 30.27 in 10.0 mi SSW 11.5 mph 16.1 mph N/A   Clear
3:35 PM 73.4 °F - 39.2 °F 29% 30.27 in 10.0 mi SW 8.1 mph 17.3 mph N/A   Clear
3:55 PM 75.2 °F - 39.2 °F 27% 30.26 in 10.0 mi SW 9.2 mph - N/A   Clear
4:15 PM 73.4 °F - 39.2 °F 29% 30.25 in 10.0 mi South 10.4 mph - N/A   Clear
4:35 PM 75.2 °F - 39.2 °F 27% 30.25 in 10.0 mi WSW 10.4 mph - N/A   Clear
4:55 PM 75.2 °F - 39.2 °F 27% 30.24 in 10.0 mi South 11.5 mph - N/A   Clear
5:15 PM 73.4 °F - 39.2 °F 29% 30.24 in 10.0 mi SSW 6.9 mph 16.1 mph N/A   Clear
5:35 PM 75.2 °F - 41.0 °F 29% 30.24 in 10.0 mi SW 10.4 mph - N/A   Clear
5:55 PM 75.2 °F - 41.0 °F 29% 30.23 in 10.0 mi SW 10.4 mph - N/A   Clear
6:15 PM 73.4 °F - 41.0 °F 31% 30.23 in 10.0 mi SSW 9.2 mph - N/A   Clear
6:35 PM 73.4 °F - 41.0 °F 31% 30.23 in 10.0 mi SSW 10.4 mph - N/A   Clear
6:55 PM 73.4 °F - 41.0 °F 31% 30.22 in 10.0 mi SSW 5.8 mph - N/A   Clear
7:15 PM 71.6 °F - 41.0 °F 33% 30.22 in 10.0 mi SW 4.6 mph - N/A   Clear
7:35 PM 69.8 °F - 41.0 °F 35% 30.22 in 10.0 mi SSW 3.5 mph - N/A   Clear
7:55 PM 68.0 °F - 41.0 °F 37% 30.22 in 10.0 mi South 3.5 mph - N/A   Clear
8:15 PM 64.4 °F - 42.8 °F 45% 30.22 in 10.0 mi Calm Calm - N/A   Clear
8:35 PM 64.4 °F - 42.8 °F 45% 30.22 in 10.0 mi Calm Calm - N/A   Clear
8:55 PM 62.6 °F - 42.8 °F 48% 30.22 in 10.0 mi Calm Calm - N/A   Clear
9:15 PM 60.8 °F - 42.8 °F 52% 30.22 in 10.0 mi SSE 3.5 mph - N/A   Clear
9:35 PM 62.6 °F - 42.8 °F 48% 30.22 in 10.0 mi SSE 3.5 mph - N/A   Clear
9:55 PM 62.6 °F - 42.8 °F 48% 30.22 in 10.0 mi SSE 3.5 mph - N/A   Clear
10:15 PM 62.6 °F - 44.6 °F 52% 30.23 in 10.0 mi South 3.5 mph - N/A   Clear
10:35 PM 60.8 °F - 44.6 °F 55% 30.23 in 10.0 mi SSE 4.6 mph - N/A   Clear
10:55 PM 62.6 °F - 44.6 °F 52% 30.23 in 10.0 mi South 4.6 mph - N/A   Clear
11:15 PM 62.6 °F - 44.6 °F 52% 30.23 in 10.0 mi SSE 3.5 mph - N/A   Clear
11:35 PM 62.6 °F - 44.6 °F 52% 30.21 in 10.0 mi South 5.8 mph - N/A   Clear
11:55 PM 62.6 °F - 44.6 °F 52% 30.21 in 10.0 mi South 5.8 mph - N/A   Clear